Wind_Speed
23 21 19 18 18 16 13 12 11 9 8 10 9 6 7 7 7 8 6 5 5 5 6 6 5 5 6 4 4 4 6 5 8 7 1 3 3 5 4 6 4 4 2
23 21 20 18 18 16 14 13 12 12 10 10 9 10 10 7 6 7 7 5 5 7 7 8 6 7 4 6 6 5 4 4 7 3 2 3 2 5 5 5 3 4 3
22 22 20 19 19 18 16 14 14 13 12 10 9 8 7 5 7 9 9 7 8 8 9 9 8 8 6 8 8 6 5 4 3 3 1 2 2 6 6 4 4 4 3
20 20 20 20 18 18 16 14 13 13 12 12 10 9 9 9 9 10 9 8 8 9 8 9 9 10 9 7 8 8 7 6 4 2 2 3 3 4 5 6 6 5 6
20 19 19 19 18 17 17 15 14 13 13 13 12 11 10 10 11 8 8 7 8 8 9 9 8 9 8 6 6 5 4 4 5 5 5 2 5 5 6 5 2 5 4
21 17 14 16 17 17 16 14 16 13 13 13 13 12 12 12 14 13 11 9 8 8 7 6 4 5 5 5 6 6 3 1 2 2 4 4 3 4 4 5 6 6 4
19 12 14 15 14 14 12 12 14 12 13 14 14 13 12 10 13 11 10 7 6 4 2 2 5 4 3 4 4 5 6 6 5 5 4 2 1 0 2 5 5 4 5
15 14 13 13 13 13 10 10 9 9 11 11 11 10 9 10 9 9 7 5 4 3 3 2 2 3 4 6 4 5 7 6 6 5 6 7 4 3 3 0 2 6 7
10 13 11 11 12 11 10 9 9 9 10 11 11 10 9 7 10 9 7 5 5 4 4 4 3 2 2 7 7 7 10 13 14 13 12 11 8 4 3 5 5 8 4
12 12 12 13 15 14 13 13 11 12 14 14 13 12 11 6 8 8 7 4 4 4 2 1 2 1 3 7 8 11 14 11 10 8 9 9 9 7 8 6 2 3 5
8 10 15 15 16 18 15 14 13 14 13 13 10 8 6 5 3 5 6 5 5 4 3 3 4 5 6 6 7 7 8 12 10 10 9 10 11 12 12 13 11 7 6
14 16 10 16 15 16 18 18 17 17 16 13 12 11 9 7 4 5 5 5 6 7 8 7 6 5 6 6 8 7 12 12 10 10 12 11 11 13 14 15 16 16 15
11 14 14 14 18 15 15 15 15 14 15 14 12 11 12 10 10 9 8 8 8 11 12 12 10 9 8 11 12 13 12 11 14 16 12 10 14 15 13 12 13 18 17
16 17 18 19 16 15 17 18 19 17 14 12 9 10 11 11 11 11 12 12 12 13 12 13 14 15 17 17 15 12 13 14 15 14 11 9 8 8 8 8 9 9 12
14 14 15 13 13 17 15 12 10 8 7 8 8 10 10 8 9 10 9 9 9 12 12 12 12 14 14 13 12 11 10 9 10 9 9 9 8 9 9 9 9 8 10
14 13 14 14 14 13 14 16 15 13 11 10 10 10 14 16 14 13 13 15 16 12 8 10 10 9 10 9 10 10 10 10 9 8 8 8 8 8 8 9 9 9 9
13 13 13 13 14 14 13 14 15 15 11 12 15 16 15 15 13 14 15 14 13 9 10 9 9 9 9 9 8 9 9 9 8 8 8 8 8 9 7 8 7 7 8
12 13 11 11 12 11 10 12 12 12 12 11 13 14 13 13 12 12 12 10 7 7 8 8 8 7 7 8 9 10 10 10 9 8 7 7 7 6 6 6 5 5 6
13 12 11 10 10 11 11 11 11 11 11 13 11 8 9 9 9 9 6 3 6 6 6 6 6 6 7 8 8 9 9 8 7 7 7 6 6 6 5 5 5 5 4
10 13 12 13 12 11 12 12 11 12 12 11 11 11 10 8 7 7 4 4 3 4 4 5 6 6 6 6 6 7 7 6 5 4 4 5 4 4 5 5 6 6 5
14 13 9 11 10 11 11 12 12 12 12 12 12 10 11 5 6 5 5 5 4 5 4 4 5 4 5 5 5 4 4 4 4 3 4 4 4 4 5 5 6 6 6
14 13 12 11 12 13 13 13 13 12 11 11 11 10 12 4 4 5 4 4 4 4 5 5 5 5 5 6 6 5 5 5 5 5 4 5 5 5 6 6 7 6 7
13 14 14 14 14 12 12 12 11 11 11 9 9 11 10 8 5 5 5 6 6 7 7 8 8 8 8 7 7 7 7 6 6 6 6 6 6 7 8 7 6 5 5
15 15 15 15 14 16 14 12 11 8 8 10 9 7 6 6 6 6 7 8 9 10 10 10 10 8 8 8 7 8 7 6 7 7 7 7 8 9 8 7 6 5 6
16 16 15 16 16 15 14 12 12 11 11 8 7 8 8 6 6 6 6 7 9 13 15 13 14 12 13 12 11 10 9 12 8 9 8 8 8 9 8 7 7 8 7
16 15 14 14 14 14 13 13 12 10 12 6 7 8 8 9 8 7 6 6 7 10 13 15 15 14 14 15 15 16 13 12 14 12 8 9 10 11 10 9 9 8 6
Wind_Direction
204 209 208 210 212 214 223 226 225 230 233 242 242 233 228 222 233 226 239 253 222 251 274 264 289 280 281 269 254 298 325 282 287 84 112 162 160 190 194 193 185 176 249
207 206 210 209 205 210 219 222 220 227 229 233 236 238 248 248 227 213 229 256 239 249 258 270 282 274 236 256 256 247 269 296 310 314 209 205 194 184 187 188 190 185 175
208 202 205 208 207 210 215 218 222 221 222 227 235 244 242 249 245 230 244 241 250 260 263 267 265 264 255 266 261 249 239 259 273 305 181 232 153 177 186 196 210 188 149
201 204 203 207 212 216 217 219 223 226 227 221 217 225 241 247 245 233 231 243 256 264 264 265 263 262 261 263 248 239 237 235 224 229 202 208 208 197 220 222 212 196 155
196 207 210 209 211 216 217 218 222 225 227 228 227 227 231 234 236 231 248 257 257 262 265 264 262 247 247 243 229 206 198 208 261 265 246 244 216 176 203 210 252 170 165
194 208 200 203 206 210 221 213 224 219 227 233 233 231 228 235 238 245 247 262 270 279 279 274 226 248 227 185 183 181 193 269 262 295 329 266 203 184 172 178 168 194 163
181 184 198 190 188 191 207 212 228 221 229 233 236 233 229 219 240 242 244 247 250 254 278 241 174 194 199 241 238 254 258 253 255 250 228 148 152 24 180 177 184 189 112
161 174 177 174 179 184 180 199 212 216 216 217 214 205 190 210 227 219 184 185 165 137 109 98 139 169 183 166 146 113 99 89 100 118 153 133 162 175 184 123 150 143 133
165 178 177 178 174 176 183 180 191 188 186 190 188 169 169 171 169 163 149 178 160 126 97 117 108 135 202 171 159 142 115 100 97 99 97 93 80 84 151 149 170 179 144
187 183 180 180 182 180 178 172 166 164 165 163 156 161 156 160 189 196 183 175 183 158 106 355 258 217 174 159 179 160 142 130 123 85 85 72 92 85 113 89 127 165 124
187 204 192 186 187 192 182 183 174 167 157 149 147 135 128 147 158 185 174 150 165 144 110 85 101 122 148 144 144 150 145 149 147 123 99 83 75 69 59 64 75 91 104
85 82 133 176 186 188 188 181 176 169 157 140 128 108 93 86 114 130 156 153 160 151 125 109 115 140 147 164 170 171 156 143 129 111 97 83 78 75 76 73 74 78 79
117 104 97 105 129 150 151 140 134 134 123 117 106 102 96 92 93 98 115 130 135 129 119 110 96 94 129 138 133 124 126 129 122 113 101 94 100 94 86 80 79 74 81
111 113 118 114 114 124 128 134 129 116 109 111 128 114 101 93 86 93 95 104 104 103 102 100 96 100 103 103 106 111 114 119 114 109 107 106 96 95 88 88 95 99 89
109 108 105 109 111 113 110 102 102 107 101 120 116 117 118 115 131 128 139 126 127 127 118 106 100 95 96 96 96 100 99 100 103 108 113 110 103 98 94 93 93 94 97
124 123 120 116 114 117 118 102 103 103 95 103 109 110 109 108 104 108 111 111 119 120 124 114 111 109 104 105 104 102 103 104 103 104 105 107 106 104 100 95 95 93 88
128 123 126 132 129 127 126 120 113 99 93 98 110 111 110 105 100 99 100 104 110 104 108 108 107 104 107 107 108 107 107 105 105 107 110 112 113 115 110 98 94 93 87
124 125 121 124 119 118 115 118 123 132 123 108 118 119 114 107 107 107 104 114 102 102 102 102 103 112 116 115 116 120 124 123 120 118 117 118 121 124 119 113 108 103 106
136 132 129 125 123 122 122 123 125 123 117 124 126 118 117 113 119 125 110 122 112 105 99 94 95 107 116 122 126 129 131 130 133 138 136 137 139 140 127 115 96 95 108
136 133 132 131 139 138 135 129 128 129 135 141 142 140 148 148 162 160 146 121 119 116 125 129 116 116 118 121 130 136 135 139 140 150 144 151 154 148 144 145 143 145 135
138 143 142 146 140 134 130 130 135 139 139 141 137 145 163 175 138 132 137 139 138 123 123 119 126 131 140 152 157 170 176 163 169 160 156 179 172 156 160 146 149 145 138
156 160 170 164 153 155 150 147 154 148 144 148 144 160 174 182 161 151 146 165 157 155 147 153 158 164 172 176 183 188 194 194 194 195 190 190 187 185 171 165 160 138 137
178 174 179 174 172 156 169 171 171 172 170 168 165 158 182 203 208 208 200 203 193 188 185 181 183 186 185 185 191 198 205 208 206 206 207 203 197 192 187 181 172 161 164
180 178 176 178 178 184 185 186 184 195 188 178 181 185 193 199 220 230 238 231 227 218 212 210 209 212 207 211 210 207 209 209 202 204 205 210 208 197 199 194 194 190 187
192 195 187 184 184 204 189 209 197 193 191 210 217 206 230 251 253 249 251 239 234 231 233 220 209 217 224 221 231 225 212 218 205 208 206 209 208 203 213 214 212 206 219
200 197 200 198 199 205 211 214 218 215 229 220 216 201 223 244 253 255 244 250 260 254 239 234 238 239 235 235 223 214 213 249 223 213 206 219 212 216 222 227 212 229 231
Height
803 807 810 813 816 820 823 826 828 830 832 834 834 833 836 836 838 839 838 839 840 839 840 840 840 840 838 839 838 838 838 834 830 833 836 838 840 841 842 842 842 843 842
797 802 806 810 812 815 818 821 825 827 829 831 831 830 833 833 834 834 836 835 837 838 838 838 838 836 838 838 837 838 838 837 836 836 838 838 839 840 841 842 843 843 843
792 796 801 806 809 811 814 817 821 824 826 828 828 830 830 831 834 833 834 835 836 836 836 835 834 834 836 834 835 834 836 836 837 836 836 837 838 839 840 842 843 843 844
789 792 796 801 805 808 810 813 816 819 821 823 826 828 828 829 831 831 832 834 833 833 833 832 832 832 832 833 832 833 833 835 835 834 834 834 836 838 839 840 841 842 842
785 789 792 796 800 804 807 809 812 815 817 820 822 823 825 827 828 828 829 830 830 830 830 829 830 829 829 830 830 831 832 832 833 831 830 832 833 835 837 838 839 841 843
780 785 788 792 796 799 803 806 807 812 814 816 818 820 822 823 824 824 825 827 827 826 826 827 827 826 827 828 828 829 830 831 830 831 831 832 832 832 835 836 838 839 840
777 782 787 790 792 795 798 801 804 807 810 812 814 816 817 820 819 821 822 825 825 826 825 825 825 825 826 827 827 828 827 828 829 829 830 832 832 833 833 834 836 837 838
776 782 785 787 789 791 793 799 802 804 806 809 811 813 815 816 817 819 821 823 824 825 825 825 825 826 826 827 829 829 828 827 827 828 829 829 831 830 832 833 835 836 839
776 776 783 786 788 792 794 796 799 802 804 806 810 811 814 815 816 818 819 822 823 824 823 823 825 826 825 826 828 829 829 829 830 830 830 831 831 831 831 833 834 835 837
775 780 782 785 787 790 793 796 798 801 803 805 808 810 812 814 816 818 819 821 823 823 823 823 823 823 824 824 826 827 828 830 831 832 834 833 832 831 831 832 833 833 835
778 779 780 784 787 791 793 796 797 800 802 805 808 810 811 813 815 816 816 819 821 822 823 822 823 823 824 825 827 829 829 831 832 831 833 833 834 833 834 833 834 834 835
781 780 777 782 785 788 792 793 796 799 802 805 807 809 811 812 814 814 816 817 819 820 821 823 823 823 823 825 827 828 829 831 833 833 834 837 839 838 839 839 837 837 838
785 783 783 785 785 789 793 796 801 803 806 808 811 813 813 815 814 815 815 818 820 821 823 824 824 824 824 825 827 829 830 831 832 835 838 840 840 840 841 842 842 842 842
786 788 787 789 791 796 796 800 803 806 810 812 815 814 815 816 818 819 820 821 822 824 825 826 827 828 828 830 832 834 834 835 837 839 842 844 844 844 844 844 845 846 846
791 793 795 798 799 798 802 806 810 811 813 814 816 816 818 820 821 822 824 825 826 828 828 829 831 833 834 835 837 837 840 841 841 843 844 845 847 847 847 847 847 847 848
794 797 798 799 802 805 807 808 811 814 816 818 819 820 820 822 824 825 825 825 828 829 830 830 831 832 834 837 838 840 841 842 844 845 847 848 849 850 851 850 850 851 851
796 797 800 802 802 805 808 809 811 816 820 821 822 823 825 826 828 828 829 831 832 831 831 833 834 835 837 838 839 840 843 845 846 848 849 850 851 852 852 851 852 853 852
797 799 800 804 804 806 808 810 811 815 819 825 826 827 827 828 830 833 833 833 834 834 835 836 837 838 840 840 840 841 843 845 848 850 850 851 852 852 852 853 853 853 854
799 800 803 805 806 808 810 811 813 816 819 825 829 831 830 831 833 834 834 832 833 836 837 838 840 842 842 843 844 845 845 847 848 849 850 851 851 852 853 854 856 856 855
800 800 803 806 810 810 810 811 815 817 820 823 824 828 831 833 834 835 834 834 834 834 837 839 840 842 845 846 848 847 848 849 850 851 852 852 852 852 853 853 853 854 856
801 804 806 807 808 809 810 812 815 818 819 822 825 827 830 830 830 831 832 834 834 835 838 839 842 844 845 847 847 848 848 849 851 852 852 855 854 853 854 854 855 855 855
799 803 806 806 809 811 812 815 818 817 818 822 824 827 828 829 829 831 831 834 835 837 838 839 841 843 845 846 846 847 848 849 851 852 852 853 854 855 854 854 854 854 855
798 801 804 806 808 810 813 813 814 816 817 819 820 822 826 827 827 828 830 831 833 834 836 838 840 843 844 844 845 847 847 848 849 850 852 853 852 854 854 854 854 853 854
796 798 800 803 806 808 810 812 813 814 813 814 817 818 820 821 823 825 827 829 830 832 835 837 838 840 842 843 844 845 846 847 848 850 851 851 852 853 853 852 852 854 855
793 795 797 800 803 805 806 807 807 808 810 811 813 816 818 819 820 822 824 825 828 829 830 832 834 836 838 839 841 843 842 845 848 848 849 850 850 852 851 851 852 853 855
790 792 794 795 797 799 801 802 803 805 807 809 813 815 817 818 817 819 821 823 824 825 826 828 830 831 833 835 837 839 839 843 844 845 846 848 849 849 850 850 850 852 854